Saginaw, MI

6:42 AM EDT on August 27, 2016 (GMT -0400)
Saginaw County-Browne

Weather History for KHYX - April, 2014

Change the Weather History Date:

Monday, April 7, 2014

  Actual Average (KMBS) Record (KMBS)
Temperature  
Mean Temperature 42 °F 43 °F  
Max Temperature 51 °F 52 °F 72 °F (2001)
Min Temperature 32 °F 33 °F 19 °F (2007)
Degree Days  
Heating Degree Days 24    
Month to date heating degree days  
Since 1 July heating degree days  
Cooling Degree Days 0    
Month to date cooling degree days  
Year to date cooling degree days  
Moisture  
Dew Point 30 °F    
Average Humidity 71    
Maximum Humidity 93    
Minimum Humidity 50    
Precipitation  
Precipitation 0.00 in 0.09 in 0.66 in (2006)
Month to date precipitation 0.60  
Year to date precipitation 5.98  
Snow  
Snow 0.00 in - - ()
Month to date snowfall  
Since 1 July snowfall  
Snow Depth -    
Sea Level Pressure  
Sea Level Pressure 29.79 in    
Wind  
Wind Speed 5 mph (NNE)    
Max Wind Speed 14 mph    
Max Gust Speed 16 mph    
Visibility 10 miles    
Events      
T = Trace of Precipitation, MM = Missing Value Source: NWS Daily Summary

Daily Weather History Graph

Daily Weather History Graph

Search for Another Location

Airport or City:

Trip Planner

Search our weather history database for the weather conditions in past years. The results will help you decide how hot, cold, wet, or windy it might be!

Date:

Astronomy

Apr. 07, 2014 Rise Set
Actual Time 7:06 AM EDT 8:09 PM EDT
Civil Twilight 6:37 AM EDT 8:38 PM EDT
Nautical Twilight 6:02 AM EDT 9:13 PM EDT
Astronomical Twilight 5:26 AM EDT 9:50 PM EDT
Moon 12:57 PM EDT (4/7) 2:50 AM EDT (4/7)
Length of Visible Light 14h 00m
Length of Day
13h 02m
First Quarter, 53% of the Moon is Illuminated
Apr 7
First Quarter
Apr 15
Full
Apr 22
Last Quarter
Apr 29
New
May 6
First Quarter

Hourly Weather History & Observations

Time (EDT) Temp. Windchill Dew Point Humidity Pressure Visibility Wind Dir Wind Speed Gust Speed Precip Events Conditions
12:15 AM 42.8 °F 38.6 °F 26.6 °F 53% 30.02 in 10.0 mi SSE 6.9 mph - N/A   Clear
12:35 AM 41.0 °F 37.1 °F 28.4 °F 61% 30.01 in 10.0 mi SSE 5.8 mph - N/A   Clear
12:55 AM 39.2 °F 35.9 °F 28.4 °F 65% 30.01 in 10.0 mi SSE 4.6 mph - N/A   Clear
1:15 AM 37.4 °F 32.8 °F 28.4 °F 70% 30.01 in 10.0 mi SSE 5.8 mph - N/A   Clear
1:35 AM 37.4 °F 33.8 °F 26.6 °F 65% 30.01 in 10.0 mi South 4.6 mph - N/A   Clear
1:55 AM 37.4 °F 32.8 °F 26.6 °F 65% 30.00 in 10.0 mi South 5.8 mph - N/A   Clear
2:15 AM 37.4 °F 32.8 °F 26.6 °F 65% 30.00 in 10.0 mi South 5.8 mph - N/A   Clear
2:35 AM 39.2 °F 34.2 °F 26.6 °F 61% 29.99 in 10.0 mi South 6.9 mph - N/A   Clear
2:55 AM 37.4 °F 33.8 °F 26.6 °F 65% 29.98 in 10.0 mi SSE 4.6 mph - N/A   Clear
3:15 AM 37.4 °F 34.9 °F 26.6 °F 65% 29.97 in 10.0 mi SE 3.5 mph - N/A   Clear
3:35 AM 37.4 °F - 28.4 °F 70% 29.96 in 10.0 mi Calm Calm - N/A   Scattered Clouds
3:55 AM 37.4 °F - 28.4 °F 70% 29.96 in 10.0 mi Calm Calm - N/A   Scattered Clouds
4:15 AM 35.6 °F 32.8 °F 26.6 °F 70% 29.95 in 10.0 mi SSE 3.5 mph - N/A   Scattered Clouds
4:35 AM 35.6 °F - 26.6 °F 70% 29.94 in 10.0 mi Calm Calm - N/A   Scattered Clouds
4:55 AM 33.8 °F - 26.6 °F 75% 29.93 in 10.0 mi Calm Calm - N/A   Scattered Clouds
5:15 AM 33.8 °F - 26.6 °F 75% 29.92 in 10.0 mi Calm Calm - N/A   Clear
5:35 AM 33.8 °F - 28.4 °F 81% 29.92 in 10.0 mi Calm Calm - N/A   Clear
5:55 AM 33.8 °F - 28.4 °F 81% 29.92 in 10.0 mi Calm Calm - N/A   Clear
6:15 AM 32.0 °F - 26.6 °F 80% 29.92 in 10.0 mi Calm Calm - N/A   Clear
6:35 AM 32.0 °F - 28.4 °F 87% 29.92 in 10.0 mi Calm Calm - N/A   Clear
6:55 AM 32.0 °F - 28.4 °F 87% 29.92 in 10.0 mi Calm Calm - N/A   Clear
7:14 AM 32.0 °F - 28.4 °F 87% 29.93 in 7.0 mi Calm Calm - N/A   Clear
7:35 AM 32.0 °F 28.7 °F 28.4 °F 87% 29.91 in 10.0 mi North 3.5 mph - N/A   Clear
7:55 AM 32.0 °F 28.7 °F 30.2 °F 93% 29.92 in 7.0 mi North 3.5 mph - N/A   Clear
8:14 AM 33.8 °F - 30.2 °F 87% 29.93 in 7.0 mi Calm Calm - N/A   Clear
8:35 AM 33.8 °F - 32.0 °F 93% 29.92 in 7.0 mi Calm Calm - N/A   Clear
8:55 AM 33.8 °F - 32.0 °F 93% 29.91 in 10.0 mi Calm Calm - N/A   Clear
9:14 AM 35.6 °F 31.7 °F 30.2 °F 81% 29.90 in 10.0 mi North 4.6 mph - N/A   Clear
9:35 AM 35.6 °F 31.7 °F 30.2 °F 81% 29.89 in 10.0 mi NNE 4.6 mph - N/A   Clear
9:55 AM 37.4 °F - 30.2 °F 75% 29.90 in 10.0 mi Calm Calm - N/A   Clear
10:14 AM 39.2 °F - 30.2 °F 70% 29.90 in 10.0 mi Calm Calm - N/A   Clear
10:35 AM 39.2 °F 37.0 °F 32.0 °F 75% 29.89 in 10.0 mi NE 3.5 mph - N/A   Clear
10:55 AM 41.0 °F 37.1 °F 32.0 °F 70% 29.87 in 10.0 mi NNE 5.8 mph - N/A   Clear
11:14 AM 41.0 °F 37.1 °F 32.0 °F 70% 29.86 in 10.0 mi NE 5.8 mph - N/A   Clear
11:35 AM 42.8 °F 40.1 °F 32.0 °F 66% 29.86 in 10.0 mi NNE 4.6 mph - N/A   Clear
11:55 AM 42.8 °F 41.1 °F 30.2 °F 61% 29.85 in 10.0 mi NNE 3.5 mph - N/A   Clear
12:15 PM 42.8 °F 38.6 °F 32.0 °F 66% 29.82 in 10.0 mi NNE 6.9 mph - N/A   Clear
12:35 PM 42.8 °F 38.0 °F 32.0 °F 66% 29.81 in 10.0 mi NNE 8.1 mph - N/A   Clear
12:55 PM 44.6 °F 39.2 °F 32.0 °F 61% 29.78 in 10.0 mi NNE 10.4 mph - N/A   Clear
1:15 PM 48.2 °F - 32.0 °F 54% 29.76 in 10.0 mi NE 9.2 mph - N/A   Clear
1:35 PM 48.2 °F - 32.0 °F 54% 29.76 in 10.0 mi NE 8.1 mph - N/A   Clear
1:55 PM 48.2 °F - 32.0 °F 54% 29.75 in 10.0 mi NNE 8.1 mph - N/A   Clear
2:15 PM 48.2 °F - 32.0 °F 54% 29.74 in 10.0 mi NNE 9.2 mph - N/A   Clear
2:35 PM 50.0 °F - 33.8 °F 54% 29.72 in 10.0 mi NNE 10.4 mph - N/A   Scattered Clouds
2:55 PM 51.8 °F - 33.8 °F 50% 29.71 in 10.0 mi NNE 10.4 mph - N/A   Scattered Clouds
3:15 PM 51.8 °F - 33.8 °F 50% 29.69 in 10.0 mi NNE 13.8 mph - N/A   Clear
3:35 PM 50.0 °F - 33.8 °F 54% 29.69 in 10.0 mi North 13.8 mph - N/A   Clear
4:15 PM 48.2 °F - 32.0 °F 54% 29.66 in 10.0 mi North 13.8 mph - N/A   Scattered Clouds
4:35 PM 48.2 °F - 32.0 °F 54% 29.65 in 10.0 mi North 12.7 mph - N/A   Mostly Cloudy
4:55 PM 46.4 °F 40.7 °F 33.8 °F 62% 29.64 in 10.0 mi North 12.7 mph - N/A   Overcast
5:15 PM 44.6 °F 38.8 °F 32.0 °F 61% 29.64 in 10.0 mi NNE 11.5 mph 16.1 mph N/A   Overcast
5:35 PM 42.8 °F 36.6 °F 32.0 °F 66% 29.64 in 10.0 mi North 11.5 mph - N/A   Overcast
5:55 PM 42.8 °F 37.0 °F 32.0 °F 66% 29.65 in 10.0 mi NNE 10.4 mph - N/A   Overcast
6:15 PM 42.8 °F 36.6 °F 32.0 °F 66% 29.64 in 10.0 mi NNE 11.5 mph - N/A   Overcast
6:35 PM 42.8 °F 37.0 °F 32.0 °F 66% 29.63 in 10.0 mi NNE 10.4 mph - N/A   Overcast
6:55 PM 41.0 °F 34.7 °F 32.0 °F 70% 29.62 in 10.0 mi NNE 10.4 mph - N/A   Overcast
7:15 PM 42.8 °F 37.5 °F 32.0 °F 66% 29.62 in 10.0 mi NNE 9.2 mph - N/A   Overcast
7:35 PM 42.8 °F 38.0 °F 32.0 °F 66% 29.61 in 10.0 mi NNE 8.1 mph - N/A   Overcast
7:55 PM 42.8 °F 37.5 °F 32.0 °F 66% 29.60 in 10.0 mi NNE 9.2 mph - N/A   Overcast
8:15 PM 41.0 °F 35.2 °F 32.0 °F 70% 29.59 in 10.0 mi NNE 9.2 mph - N/A   Overcast
8:35 PM 37.4 °F 31.4 °F 32.0 °F 81% 29.59 in 10.0 mi North 8.1 mph - N/A   Overcast
8:55 PM 37.4 °F 32.1 °F 32.0 °F 81% 29.59 in 10.0 mi North 6.9 mph - N/A   Overcast
9:15 PM 37.4 °F 32.1 °F 32.0 °F 81% 29.59 in 10.0 mi North 6.9 mph - N/A   Overcast
9:35 PM 37.4 °F 30.8 °F 32.0 °F 81% 29.58 in 10.0 mi North 9.2 mph - N/A   Overcast
9:54 PM 37.4 °F 31.4 °F 32.0 °F 81% 29.58 in 10.0 mi North 8.1 mph - N/A   Overcast
10:15 PM 37.4 °F 32.1 °F 32.0 °F 81% 29.57 in 10.0 mi North 6.9 mph - N/A   Overcast
10:35 PM 37.4 °F 32.8 °F 32.0 °F 81% 29.56 in 10.0 mi NNE 5.8 mph - N/A   Overcast
10:54 PM 37.4 °F 31.4 °F 32.0 °F 81% 29.56 in 10.0 mi North 8.1 mph - N/A   Overcast
11:15 PM 37.4 °F 30.8 °F 32.0 °F 81% 29.56 in 10.0 mi NNE 9.2 mph - N/A   Overcast
11:35 PM 37.4 °F 32.1 °F 32.0 °F 81% 29.54 in 10.0 mi North 6.9 mph - N/A   Overcast
11:54 PM 37.4 °F 32.8 °F 32.0 °F 81% 29.53 in 10.0 mi North 5.8 mph - N/A   Overcast